Location: Fort Worth, Tx
(32.7431°N, 97.3695°W)
Time: 23:23:28
(UTC-05:00)

Explorer 11/Cluster Stage 4 - Pass Details

Date: 21 October 2024
Orbit: 464 x 1205 km, 28.8° (Epoch: 10 November)

Event Time Altitude Azimuth Distance (km) Brightness Sun altitude
Rises 22:02:35 0° 272° (W) 4,097 11.5 -28.8°
Reaches altitude 10° 22:06:00 10° 261° (W) 3,098 10.5 -29.5°
Maximum altitude 22:12:15 27° 208° (SSW) 1,986 8.7 -30.8°
Enters shadow 22:14:18 24° 183° (S) 2,078 8.6 -31.2°
